Home   Weather   Rouyn-Noranda   Past weeks

Flag for Canada Past Weather in Rouyn-Noranda, Quebec, Canada — Yesterday and Last 2 Weeks

Now
61 °F

Passing clouds.


Feels Like: 61 °F
Forecast: 45 / 65 °F
Wind: 2 mph from North

Location: Rouyn Airport

Current Time: Sep 29, 2016 at 1:01:44 PM

Latest Report: Sep 29, 2016 at 12:00 PM


Visibility: 15 mi

Pressure: 30.55 "Hg

Humidity: 72%

Dew Point: 52 °F

Location of Rouyn-NorandaLocation

Past Weather in Rouyn-Noranda — Graph

°F

Rouyn-Noranda Temperature Yesterday

Maximum temperature yesterday: 70 °F (at 3:00 PM)
Minimum temperature yesterday: 43 °F (at 6:00 AM)
Average temperature yesterday: 56 °F

High & Low Weather Summary for the Past Weeks

 TemperatureHumidityPressure
High72 °F (Sep 19, 4:00 PM)100% (Sep 15, 5:00 AM)30.57 "Hg (Sep 15, 5:00 AM)
Low28 °F (Sep 25, 3:48 AM)38% (Sep 28, 3:00 PM)29.65 "Hg (Sep 27, 4:00 AM)
Average53 °F81%30.08 "Hg
* Reported Sep 14 12:13 PM — Sep 29 12:00 PM, Rouyn-Noranda, Weather by CustomWeather, © 2016

Note: Actual official high and low records may vary slightly from our data, if they occured in-between our weather recording intervals... More about our weather records

Advertising

Rouyn-Noranda Weather History for the Previous 24 Hours

Scroll right to see more
 ConditionsComfort  
Time TempWeatherWind HumidityBarometerVisibility
12:00 PM
Thu, Sep 29
61 °FPassing clouds.2 mph72%30.55 "Hg15 mi
11:00 AM57 °FPassing clouds.No wind77%30.57 "Hg15 mi
10:00 AM54 °FPassing clouds.5 mph82%30.56 "Hg15 mi
9:00 AM50 °FPassing clouds.6 mph88%30.55 "Hg15 mi
8:00 AM39 °FFog.No wind100%30.53 "Hg1 mi
7:00 AM39 °FFog.No wind100%30.51 "Hg1 mi
6:00 AM39 °FFog.2 mph93%30.49 "Hg1 mi
5:00 AM41 °FFog.5 mph100%30.47 "Hg3 mi
4:00 AM43 °FClear.3 mph100%30.46 "Hg15 mi
3:00 AM43 °FClear.2 mph93%30.44 "Hg15 mi
2:00 AM46 °FClear.No wind93%30.43 "Hg15 mi
1:00 AM50 °FClear.3 mph94%30.41 "Hg15 mi
12:00 AM52 °FClear.6 mph82%30.40 "Hg15 mi
11:00 PM
Wed, Sep 28
54 °FClear.8 mph82%30.39 "Hg15 mi
10:00 PM55 °FClear.8 mph77%30.37 "Hg15 mi
9:00 PM57 °FClear.6 mph67%30.34 "Hg15 mi
8:00 PM59 °FPassing clouds.7 mph63%30.33 "Hg15 mi
7:00 PM63 °FPassing clouds.6 mph56%30.30 "Hg15 mi
6:00 PM66 °FPassing clouds.8 mph49%30.27 "Hg15 mi
5:00 PM68 °FPassing clouds.7 mph46%30.25 "Hg15 mi
4:00 PM70 °FPassing clouds.9 mph40%30.23 "Hg15 mi
3:00 PM70 °FPassing clouds.12 mph38%30.22 "Hg15 mi
2:00 PM68 °FPassing clouds.13 mph46%30.21 "Hg15 mi
1:00 PM66 °FPassing clouds.9 mph52%30.21 "Hg15 mi
Weather by CustomWeather, © 2016

See weather overviewHow to use our weather pages